• In Hungary
  • List of Countries
  • For 7 days
  • Water Temperature
  • Satellite Maps
  • Weather Map
  • News
  • Weather Widgets
  • user-avatar
    Login

    Hourly Weather Sloboda-Dolyns'ka

    Today, 19 October, Friday

    Time Temperature Precipitation Wind Pressure Humidity
    00:00 +12°C° 0 mm 1 mps 728 mmHg 73%
    01:00 +12°C° 0 mm 1 mps 728 mmHg 73%
    02:00 +12°C° 0 mm 1 mps 728 mmHg 74%
    03:00 +12°C° 0 mm 1 mps 728 mmHg 74%
    04:00 +12°C° 0 mm 1 mps 728 mmHg 74%
    05:00 +12°C° 0 mm 1 mps 728 mmHg 74%
    06:00 +12°C° 0 mm 1 mps 728 mmHg 74%
    07:00 +12°C° 0 mm 1 mps 728 mmHg 74%
    08:00 +12°C° 0 mm 1 mps 728 mmHg 74%
    09:00 +13°C° 0 mm 2 mps 728 mmHg 70%
    10:00 +15°C° 0 mm 2 mps 728 mmHg 66%
    11:00 +16°C° 0 mm 2 mps 728 mmHg 62%
    12:00 +16°C° 0 mm 2 mps 729 mmHg 62%
    13:00 +17°C° 0 mm 2 mps 729 mmHg 62%
    14:00 +17°C° 0 mm 2 mps 729 mmHg 62%
    15:00 +16°C° 0.1 mm 2 mps 728 mmHg 67%
    16:00 +15°C° 0.1 mm 2 mps 728 mmHg 73%
    17:00 +14°C° 0.1 mm 2 mps 728 mmHg 78%
    18:00 +14°C° 0.1 mm 2 mps 728 mmHg 80%
    19:00 +13°C° 0.1 mm 2 mps 729 mmHg 83%
    20:00 +12°C° 0.1 mm 1 mps 729 mmHg 85%
    21:00 +12°C° 0.1 mm 1 mps 729 mmHg 86%
    22:00 +12°C° 0.1 mm 1 mps 729 mmHg 88%
    23:00 +11°C° 0.1 mm 1 mps 729 mmHg 89%

    Tomorrow, 20 October, Saturday

    Time Temperature Precipitation Wind Pressure Humidity
    00:00 +11°C° 0 mm 1 mps 729 mmHg 90%
    01:00 +10°C° 0 mm 2 mps 729 mmHg 91%
    02:00 +10°C° 0 mm 2 mps 730 mmHg 93%
    03:00 +9°C° 0 mm 2 mps 730 mmHg 93%
    04:00 +9°C° 0 mm 2 mps 730 mmHg 94%
    05:00 +9°C° 0 mm 2 mps 730 mmHg 95%
    06:00 +9°C° 0 mm 2 mps 730 mmHg 94%
    07:00 +9°C° 0 mm 2 mps 730 mmHg 93%
    08:00 +9°C° 0 mm 2 mps 731 mmHg 93%
    09:00 +12°C° 0 mm 2 mps 731 mmHg 87%
    10:00 +13°C° 0 mm 2 mps 731 mmHg 81%
    11:00 +14°C° 0 mm 3 mps 731 mmHg 74%
    12:00 +14°C° 0 mm 3 mps 731 mmHg 73%
    13:00 +14°C° 0 mm 3 mps 731 mmHg 72%
    14:00 +14°C° 0 mm 3 mps 731 mmHg 71%
    15:00 +14°C° 0 mm 3 mps 731 mmHg 74%
    16:00 +13°C° 0 mm 3 mps 731 mmHg 78%
    17:00 +13°C° 0 mm 2 mps 731 mmHg 81%
    18:00 +13°C° 0 mm 2 mps 731 mmHg 82%
    19:00 +12°C° 0 mm 2 mps 731 mmHg 83%
    20:00 +12°C° 0 mm 2 mps 731 mmHg 85%
    21:00 +10°C° 0 mm 2 mps 731 mmHg 84%
    22:00 +10°C° 0 mm 2 mps 731 mmHg 83%
    23:00 +9°C° 0 mm 2 mps 731 mmHg 82%

    Day after tomorrow, 21 October, Sunday

    Time Temperature Precipitation Wind Pressure Humidity
    00:00 +9°C° 0 mm 2 mps 731 mmHg 81%
    01:00 +9°C° 0 mm 2 mps 731 mmHg 79%
    02:00 +8°C° 0 mm 2 mps 731 mmHg 78%
    03:00 +8°C° 0 mm 2 mps 731 mmHg 79%
    04:00 +8°C° 0 mm 2 mps 731 mmHg 80%
    05:00 +8°C° 0 mm 2 mps 730 mmHg 81%
    06:00 +8°C° 0.1 mm 2 mps 730 mmHg 82%
    07:00 +7°C° 0.1 mm 3 mps 730 mmHg 83%
    08:00 +7°C° 0.1 mm 3 mps 731 mmHg 84%
    09:00 +8°C° 0.1 mm 3 mps 730 mmHg 81%
    10:00 +8°C° 0.1 mm 3 mps 730 mmHg 79%
    11:00 +8°C° 0.1 mm 3 mps 730 mmHg 76%
    12:00 +9°C° 0.1 mm 3 mps 730 mmHg 72%
    13:00 +9°C° 0.1 mm 3 mps 730 mmHg 69%
    14:00 +10°C° 0.1 mm 3 mps 730 mmHg 65%
    15:00 +9°C° 0.1 mm 3 mps 730 mmHg 69%
    16:00 +8°C° 0.1 mm 2 mps 729 mmHg 74%
    17:00 +8°C° 0.1 mm 2 mps 729 mmHg 78%
    18:00 +7°C° 0 mm 2 mps 729 mmHg 82%
    19:00 +6°C° 0 mm 2 mps 730 mmHg 86%
    20:00 +6°C° 0 mm 2 mps 730 mmHg 90%
    21:00 +6°C° 0 mm 1 mps 730 mmHg 91%
    22:00 +6°C° 0 mm 1 mps 730 mmHg 91%
    23:00 +6°C° 0 mm 1 mps 731 mmHg 92%

    22 October, Monday

    Time Temperature Precipitation Wind Pressure Humidity
    00:00 +5°C° 0 mm 1 mps 731 mmHg 93%
    01:00 +5°C° 0 mm 1 mps 731 mmHg 93%
    02:00 +5°C° 0 mm 1 mps 731 mmHg 94%
    03:00 +5°C° 0 mm 1 mps 731 mmHg 94%
    04:00 +4°C° 0 mm 1 mps 731 mmHg 94%
    05:00 +4°C° 0 mm 1 mps 731 mmHg 93%
    06:00 +4°C° 0 mm 1 mps 731 mmHg 92%
    07:00 +5°C° 0 mm 1 mps 731 mmHg 91%
    08:00 +5°C° 0 mm 1 mps 732 mmHg 90%
    09:00 +6°C° 0 mm 1 mps 732 mmHg 82%
    10:00 +8°C° 0 mm 1 mps 731 mmHg 74%
    11:00 +10°C° 0 mm 1 mps 731 mmHg 66%
    12:00 +10°C° 0 mm 1 mps 731 mmHg 63%
    13:00 +11°C° 0 mm 1 mps 730 mmHg 59%
    14:00 +12°C° 0 mm 1 mps 730 mmHg 56%
    15:00 +11°C° 0 mm 1 mps 730 mmHg 61%
    16:00 +10°C° 0 mm 1 mps 729 mmHg 66%
    17:00 +9°C° 0 mm 1 mps 729 mmHg 70%
    18:00 +8°C° 0 mm 1 mps 729 mmHg 74%
    19:00 +7°C° 0 mm 1 mps 729 mmHg 78%
    20:00 +6°C° 0 mm 1 mps 729 mmHg 82%
    21:00 +6°C° 0 mm 1 mps 729 mmHg 83%
    22:00 +5°C° 0 mm 1 mps 729 mmHg 84%
    23:00 +5°C° 0 mm 1 mps 729 mmHg 86%

    23 October, Tuesday

    Time Temperature Precipitation Wind Pressure Humidity
    00:00 +5°C° 0 mm 1 mps 728 mmHg 86%
    01:00 +4°C° 0 mm 1 mps 728 mmHg 87%
    02:00 +4°C° 0 mm 1 mps 728 mmHg 88%
    03:00 +4°C° 0 mm 1 mps 728 mmHg 89%
    04:00 +4°C° 0 mm 1 mps 727 mmHg 89%
    05:00 +3°C° 0 mm 1 mps 727 mmHg 90%
    06:00 +4°C° 0 mm 1 mps 727 mmHg 89%
    07:00 +4°C° 0 mm 1 mps 727 mmHg 88%
    08:00 +4°C° 0 mm 1 mps 727 mmHg 87%
    09:00 +6°C° 0 mm 1 mps 727 mmHg 79%
    10:00 +7°C° 0 mm 2 mps 727 mmHg 71%
    11:00 +9°C° 0 mm 2 mps 727 mmHg 63%
    12:00 +9°C° 0 mm 3 mps 727 mmHg 64%
    13:00 +9°C° 0 mm 3 mps 727 mmHg 64%
    14:00 +9°C° 0 mm 3 mps 726 mmHg 65%
    15:00 +8°C° 0 mm 3 mps 726 mmHg 70%
    16:00 +7°C° 0 mm 3 mps 726 mmHg 75%
    17:00 +5°C° 0 mm 3 mps 726 mmHg 80%
    18:00 +4°C° 0 mm 3 mps 726 mmHg 83%
    19:00 +4°C° 0 mm 2 mps 726 mmHg 86%
    20:00 +4°C° 0 mm 2 mps 727 mmHg 89%
    21:00 +3°C° 0 mm 2 mps 726 mmHg 89%
    22:00 +3°C° 0 mm 2 mps 726 mmHg 89%
    23:00 +2°C° 0 mm 2 mps 726 mmHg 89%

    24 October, Wednesday

    Time Temperature Precipitation Wind Pressure Humidity
    00:00 +2°C° 0 mm 2 mps 726 mmHg 89%
    01:00 +2°C° 0 mm 2 mps 726 mmHg 88%
    02:00 +2°C° 0 mm 2 mps 725 mmHg 88%
    03:00 +2°C° 0 mm 2 mps 725 mmHg 87%
    04:00 +2°C° 0 mm 2 mps 724 mmHg 85%
    05:00 +2°C° 0 mm 2 mps 724 mmHg 84%
    06:00 +2°C° 0 mm 3 mps 724 mmHg 80%
    07:00 +2°C° 0 mm 3 mps 723 mmHg 77%
    08:00 +3°C° 0 mm 4 mps 723 mmHg 73%
    09:00 +3°C° 0 mm 5 mps 722 mmHg 66%
    10:00 +5°C° 0 mm 7 mps 721 mmHg 60%
    11:00 +6°C° 0 mm 8 mps 720 mmHg 53%
    12:00 +6°C° 0.3 mm 9 mps 719 mmHg 58%
    13:00 +6°C° 0.3 mm 9 mps 718 mmHg 63%
    14:00 +6°C° 0.3 mm 10 mps 717 mmHg 68%
    15:00 +6°C° 0.4 mm 10 mps 716 mmHg 70%
    16:00 +6°C° 0.4 mm 10 mps 715 mmHg 72%
    17:00 +6°C° 0.4 mm 10 mps 714 mmHg 74%
    18:00 +6°C° 0.9 mm 9 mps 714 mmHg 76%
    19:00 +6°C° 0.9 mm 9 mps 714 mmHg 78%
    20:00 +6°C° 0.9 mm 9 mps 715 mmHg 80%
    21:00 +5°C° 0.3 mm 8 mps 715 mmHg 80%
    22:00 +4°C° 0.3 mm 7 mps 715 mmHg 79%
    23:00 +3°C° 0.3 mm 6 mps 715 mmHg 79%
    Show more